Search your local weather  

 

Hazardous Weather Conditions

No active alerts for PHOENIX, ARIZONA

Current Conditions: PHOENIX, ARIZONA

Clear


95.0 F

Last Updated on Jul 17 2024, 10:53 AM MST
Humidity: 34%
Wind Speed: 4.7 mph
Barometer: 29.92 in
Dewpoint: 62.1 F
Visibility: 10.00 mi
Precip: --
Heat Index: 95.9 F
Wind Chill: NA
Current conditions at:

PHOENIX/DEER VLY (KDVT)

Lat: 33.68 Lon: -112.07

active severe weather and emergency alerts image weather storm and storm spotter reports image weather observation monitoring service image
Active
Alerts
Storm Reports Weather
Monitoring

5 Day Forecast for PHOENIX, ARIZONA (85001)

Wednesday

High 109 °F
Wednesday
Night
Low 91 °F
Thursday

High 111 °F
Thursday
Night
Low 90 °F
Friday

High 113 °F
Friday
Night
Low 92 °F
Saturday

High 115 °F
Saturday
Night
Low 92 °F
Sunday

High 111 °F

Sign-up For Email & Text Message Weather Alert Notification Services



Advertise Here

Observation History for PHOENIX, ARIZONA


Time Wind
(mph)
Vis
(mi)
Weather Precip (in) Temperature (F) Relative
Humidity
Wind
Chill
(F)
Heat
Index
(F)
Pressure
Air Dwpt altimeter
(in)
sea level
(mb)
10:53 AM MST 4.7 10.00 Clear -- 95.0 62.1 34% NA 95.9 29.92 1013.2
09:53 AM MST 3.4 10.00 Clear -- 96.1 62.1 33% NA 97.2 29.94 1013.6
07:53 AM MST 6.9 10.00 Clear -- 90.0 62.1 40% NA 90.5 29.95 1014.2
06:53 AM MST SW 9.2 10.00 Clear -- 89.1 61.0 39% NA 89.1 29.94 1013.9
05:53 AM MST 6.9 10.00 Clear -- 88.0 61.0 40% NA 88.0 29.92 1013.2
04:53 AM MST 0.0 10.00 Clear -- 88.0 64.0 45% NA 89.4 29.90 1012.5
03:53 AM MST 8.1 10.00 Clear -- 89.1 64.0 44% NA 90.5 29.87 1011.5
02:53 AM MST SW 5.8 10.00 Clear -- 90.0 63.0 41% NA 90.9 29.85 1010.8
01:53 AM MST W 5.8 10.00 Clear -- 91.0 63.0 39% NA 92.1 29.83 1010.2
12:53 AM MST W 4.7 10.00 Clear -- 91.0 62.1 38% NA 91.6 29.83 1010.2
11:53 PM MST 0.0 10.00 Clear -- 91.9 59.0 33% NA 91.2 29.81 1009.5
10:53 PM MST 5.8 10.00 Clear -- 93.9 55.0 27% NA 91.9 29.81 1009.5
09:53 PM MST E 6.9 10.00 Partly Cloudy -- 95.0 59.0 30% NA 94.5 29.82 1009.8
09:37 PM MST 6.9 10.00 Mostly Cloudy -- 96.1 57.9 28% NA 95.4 29.82 1009.8
08:53 PM MST SW 11.4 10.00 Clear -- 100.9 59.0 25% NA 101.1 29.79 1008.8
07:53 PM MST SW 8.1 10.00 Clear -- 102.9 59.0 24% NA 103.5 29.77 1008.1
06:53 PM MST W 12.8 10.00 Clear -- 105.1 59.0 22% NA 106.0 29.76 1007.8
05:53 PM MST 11.4 10.00 Clear -- 106.0 59.0 22% NA 106.9 29.75 1007.5
04:53 PM MST 10.3 10.00 Clear -- 106.0 60.1 23% NA 107.6 29.76 1007.8
03:53 PM MST W 10.3 10.00 Clear -- 106.0 60.1 23% NA 107.6 29.79 1008.8
02:53 PM MST 10.3 10.00 Clear -- 106.0 61.0 23% NA 108.1 29.82 1009.8
01:53 PM MST 11.4 10.00 Clear -- 102.0 61.0 26% NA 103.5 29.86 1011.2
12:53 PM MST 3.4 10.00 Clear -- 99.0 62.1 30% NA 100.6 29.90 1012.5
11:53 AM MST 11.4 10.00 Clear -- 99.0 62.1 30% NA 100.6 29.94 1013.6

Regional Weather Observation

PHOENIX/DEER VLY (KDVT)

Clear
95.0 F

GLENDALE (KGEU)

Mostly Cloudy
98.6 F

LUKE AFB/GLENDAL (KLUF)

Partly Cloudy
98.2 F

PHOENIX/SKY HRBR (KPHX)

Partly Cloudy
100.0 F

GOODYEAR MUNICIP (KGYR)

Partly Cloudy
98.6 F

SCOTTSDALE (KSDL)

Clear
98.1 F

Advertise Here


Advertise Here